[[{"header":{"parameterUnit":"m.s-1","parameterCategory":1,"la1":30.2991,"la2":30.254,"lo1":-89.0895,"lo2":-89.0444,"dy":0.0017,"dx":0.0017,"nx":28,"ny":28,"refTime":"2023-10-13T09:00:00:Z","depth":0,"parameterNumber":2,"parameterNumberName":"U-component_of_WINDS"},"data":[0,0,0,0,0,0,0,0,0,0,0,0,0,0,0,0,0,0,0,0,0,0,0,0,0,0,0,0,0,0,0,0,0,0,0,0,0,0,0,0,0,0,0,0,0,0,0,0,0,0,0,0,0,0,0,0,0,0,0.846,0.8461,0,0.8538,0.8539,0.854,0.8547,0.8546,0.8545,0.8544,0.8628,0.8631,0.8634,0,0,0,0,0,0,0,0,0,0,0,0,0,0.8321,0.8324,0.846,0.8461,0.8462,0.8538,0.8539,0.854,0.8547,0.8546,0.8545,0.8544,0.8627,0.8631,0.8634,0,0,0,0,0,0,0,0,0,0,0,0,0,0.8389,0.8324,0.846,0.8475,0.8477,0.8538,0.8539,0.854,0.8547,0.8546,0.8545,0.8544,0.8626,0.863,0.8635,0.8687,0,0,0.8648,0.865,0,0,0,0,0,0,0,0,0.8385,0.8394,0.8472,0.8474,0.8476,0.8531,0.8521,0.859,0.8548,0.8521,0.8544,0.8543,0.8597,0.8604,0.8621,0.8691,0.8695,0.8649,0.8652,0.8654,0.8655,0,0,0,0,0,0,0,0.838,0.839,0.8491,0.8473,0.8476,0.8478,0.8487,0.8534,0.8565,0.8523,0.8524,0.8532,0.8598,0.8617,0.8623,0.8696,0.8649,0.8653,0.8656,0.8657,0.8813,0.8814,0,0,0,0,0,0,0.8372,0.8386,0.8489,0.8493,0.8426,0.8482,0.8491,0.8515,0.8565,0.8571,0.8533,0.8532,0.861,0.8618,0.8626,0.8691,0.8653,0.8658,0.866,0.8812,0.8813,0.8815,0,0,0,0,0,0,0.8369,0.8381,0.8485,0.844,0.8454,0.8486,0.8512,0.8517,0.8536,0.8572,0.8578,0.8547,0.8609,0.862,0.8672,0.8694,0.866,0.8664,0.881,0.8812,0.8814,0.882,0,0,0,0,0,0,0.8365,0.838,0.84,0.844,0.8456,0.8529,0.8514,0.852,0.8543,0.8543,0.8586,0.8593,0.8609,0.8665,0.8676,0.8699,0.8667,0.8808,0.8811,0.8814,0.8818,0.8822,0.8826,0,0,0,0,0,0.836,0.8399,0.84,0.8413,0.8481,0.853,0.8539,0.8556,0.8545,0.8565,0.8589,0.8591,0.869,0.867,0.8683,0.8708,0.8807,0.881,0.8813,0.8816,0.8822,0.8826,0,0,0,0,0,0,0.8361,0.8405,0.8407,0.846,0.8491,0.8531,0.8557,0.8561,0.8596,0.8595,0.8616,0.8626,0.8676,0.8698,0.8675,0.8761,0.8747,0.8753,0.8745,0.875,0.8754,0.8748,0.8671,0,0,0,0,0,0.8368,0.8402,0.8439,0.8483,0.8498,0.8525,0.8547,0.8557,0.8591,0.8604,0.8631,0.8665,0.8703,0.8728,0.8766,0.8822,0.8831,0.8845,0.8849,0.8852,0.8856,0.8887,0.8894,0.8826,0.8826,0.8826,0,0,0.8381,0.8409,0.843,0.8484,0.8509,0.8545,0.8536,0.8575,0.8602,0.8611,0.866,0.8682,0.8721,0.8774,0.8799,0.8793,0.8877,0.8856,0.8858,0.8861,0.8891,0.8898,0.8903,0.8828,0.8827,0.8827,0,0,0.8425,0.8449,0.8488,0.8513,0.8551,0.8568,0.8578,0.8617,0.8631,0.8681,0.8688,0.8722,0.8787,0.8814,0.8837,0.889,0.8894,0.8902,0.8922,0.8952,0.8957,0.8962,0.898,0.8987,0.8907,0.8907,0.8907,0,0.8437,0.8491,0.8508,0.8546,0.8569,0.8577,0.8617,0.8641,0.8689,0.8706,0.8698,0.878,0.8807,0.8867,0.888,0.8898,0.891,0.8897,0.8955,0.896,0.8964,0.8982,0.8989,0.8908,0.8907,0.8907,0.8907,0,0.8504,0.8542,0.8569,0.8613,0.864,0.8679,0.8702,0.8727,0.8736,0.8754,0.8805,0.8838,0.8881,0.8897,0.8906,0.8958,0.8953,0.895,0.8936,0.8971,0.8988,0.8995,0.8909,0.8908,0.8908,0.8908,0,0,0.855,0.8603,0.8613,0.8633,0.8675,0.8705,0.8745,0.8786,0.8807,0.8841,0.8875,0.893,0.8927,0.8952,0.8965,0.8991,0.903,0.8985,0.8986,0.8991,0.9089,0.9091,0.9098,0.9033,0.9035,0.9036,0.9086,0,0.8597,0.8666,0.8682,0.8742,0.8777,0.8785,0.8819,0.885,0.8868,0.8901,0.8923,0.8961,0.8955,0.897,0.8996,0.902,0.905,0.9017,0.9065,0.9067,0.9054,0.9108,0.9109,0.9155,0.9093,0.9094,0.9095,0,0.8662,0.8695,0.8757,0.8794,0.881,0.884,0.8879,0.8911,0.8946,0.8957,0.8985,0.8995,0.9038,0.9022,0.9081,0.9058,0.9079,0.9094,0.9096,0.9101,0.9082,0.9113,0.917,0.9177,0.9106,0.9105,0.9104,0,0.8687,0.8748,0.8793,0.8811,0.8855,0.8876,0.8896,0.893,0.8953,0.8988,0.9004,0.9044,0.9066,0.9097,0.9117,0.9104,0.9175,0.9161,0.9186,0.9185,0.92,0.9199,0.926,0.9215,0.9215,0.9215,0.9214,0,0.8738,0.8776,0.8805,0.8833,0.8876,0.8895,0.8937,0.8957,0.8987,0.9019,0.9029,0.906,0.9085,0.912,0.9137,0.9183,0.9193,0.9204,0.9208,0.9202,0.9201,0.9216,0.9213,0.9216,0.9216,0.9216,0.9215,0,0.8774,0.8795,0.8845,0.8883,0.8893,0.8923,0.8956,0.8984,0.9002,0.9043,0.9054,0.9084,0.9125,0.9149,0.9201,0.9212,0.9263,0.9266,0.9251,0.9252,0.9275,0.9273,0.9349,0.9359,0.9307,0.9308,0.9308,0,0.8804,0.8833,0.8874,0.8896,0.8915,0.8951,0.8974,0.8994,0.9019,0.9061,0.9083,0.9124,0.9158,0.9224,0.9251,0.9291,0.9294,0.9318,0.93,0.9294,0.9294,0.9291,0.9294,0.9321,0.9321,0.9322,0.9322,0,0.8856,0.8865,0.8898,0.8935,0.8963,0.8993,0.9024,0.9041,0.9067,0.9094,0.9135,0.9161,0.9213,0.9254,0.9296,0.9318,0.9325,0.9327,0.9335,0.933,0.9319,0.9324,0.9258,0.9326,0.9325,0.9325,0.9325,0.9325,0.8889,0.8915,0.8947,0.8984,0.9009,0.9037,0.9064,0.9086,0.912,0.9163,0.9174,0.9217,0.9251,0.9308,0.9331,0.9366,0.9362,0.9373,0.9376,0.9378,0.9378,0.9314,0.9374,0.9374,0.9374,0.9374,0.9374,0,0.894,0.8961,0.8995,0.9036,0.9066,0.9068,0.9102,0.9126,0.9163,0.9194,0.9227,0.9274,0.9314,0.9344,0.9385,0.9407,0.9411,0.9417,0.9415,0.942,0.938,0.9369,0.9413,0.9413,0.9413,0.9413,0.9413,0.9413,0.897,0.9014,0.9027,0.9083,0.9104,0.9145,0.9164,0.919,0.9215,0.9267,0.9299,0.9318,0.9349,0.9392,0.9429,0.9437,0.9451,0.9457,0.9465,0.9427,0.9423,0.9419,0.9408,0.946,0.946,0.9502,0.9502,0.9502]},{"header":{"parameterUnit":"m.s-1","parameterCategory":1,"la1":30.2991,"la2":30.254,"lo1":-89.0895,"lo2":-89.0444,"dy":0.0017,"dx":0.0017,"nx":28,"ny":28,"refTime":"2023-10-13T09:00:00:Z","depth":0,"parameterNumber":3,"parameterNumberName":"V-component_of_WINDS"},"data":[0,0,0,0,0,0,0,0,0,0,0,0,0,0,0,0,0,0,0,0,0,0,0,0,0,0,0,0,0,0,0,0,0,0,0,0,0,0,0,0,0,0,0,0,0,0,0,0,0,0,0,0,0,0,0,0,0,0,1.3296,1.3294,0,1.3143,1.3141,1.3139,1.3074,1.3074,1.3074,1.3074,1.2909,1.2905,1.29,0,0,0,0,0,0,0,0,0,0,0,0,0,1.3524,1.352,1.3296,1.3294,1.3292,1.3143,1.3141,1.3139,1.3074,1.3074,1.3074,1.3075,1.2911,1.2905,1.29,0,0,0,0,0,0,0,0,0,0,0,0,0,1.3403,1.3519,1.3296,1.3242,1.3235,1.3143,1.3141,1.3138,1.3073,1.3074,1.3074,1.3075,1.2913,1.2906,1.2899,1.2847,0,0,1.2878,1.2875,0,0,0,0,0,0,0,0,1.341,1.3395,1.3252,1.3245,1.3238,1.3128,1.3161,1.304,1.3073,1.3135,1.3074,1.3075,1.2981,1.2969,1.2939,1.284,1.2833,1.2877,1.2873,1.287,1.2868,0,0,0,0,0,0,0,1.3418,1.3401,1.3235,1.325,1.3241,1.3222,1.3206,1.3137,1.3057,1.3129,1.3124,1.3107,1.2977,1.2946,1.2934,1.283,1.2877,1.2871,1.2867,1.2864,1.2679,1.2678,0,0,0,0,0,0,1.3437,1.3408,1.324,1.323,1.3327,1.3218,1.3199,1.3163,1.3058,1.3042,1.3107,1.3105,1.2957,1.2943,1.2928,1.286,1.287,1.2863,1.2859,1.2679,1.2679,1.2678,0,0,0,0,0,0,1.3442,1.3423,1.3246,1.3318,1.3294,1.3214,1.3173,1.3159,1.3128,1.3041,1.3026,1.309,1.2957,1.2938,1.2868,1.2853,1.286,1.2854,1.268,1.2679,1.2678,1.2723,0,0,0,0,0,0,1.3449,1.3425,1.3406,1.3318,1.3291,1.3191,1.3172,1.3156,1.3117,1.3112,1.3021,1.3006,1.2956,1.2879,1.2861,1.2843,1.2848,1.2681,1.268,1.2679,1.2722,1.2723,1.2724,0,0,0,0,0,1.3457,1.3424,1.3406,1.3386,1.3266,1.3191,1.3174,1.312,1.3116,1.3095,1.3039,1.3009,1.2858,1.2872,1.2852,1.2832,1.2682,1.268,1.2679,1.2722,1.2723,1.2724,0,0,0,0,0,0,1.3509,1.3411,1.339,1.3328,1.3268,1.318,1.3152,1.3123,1.3062,1.306,1.2992,1.2972,1.2907,1.2862,1.288,1.2775,1.2767,1.2761,1.2807,1.2808,1.2809,1.282,1.2843,0,0,0,0,0,1.3514,1.3464,1.3379,1.3332,1.3304,1.3233,1.3198,1.3161,1.3096,1.307,1.3009,1.2944,1.2882,1.2842,1.278,1.2716,1.2694,1.2692,1.2693,1.2694,1.2689,1.265,1.2648,1.2672,1.2672,1.2672,0,0,1.3522,1.3462,1.3434,1.3341,1.3291,1.3237,1.3212,1.3157,1.3116,1.306,1.2991,1.2944,1.2867,1.28,1.2767,1.276,1.2678,1.2692,1.2694,1.2688,1.2648,1.2646,1.2644,1.2671,1.2671,1.2672,0,0,1.351,1.346,1.3415,1.3366,1.3291,1.3244,1.3233,1.3149,1.3117,1.3047,1.3004,1.2952,1.2847,1.2794,1.2753,1.272,1.2689,1.2702,1.2706,1.2669,1.2667,1.2665,1.2651,1.2648,1.2698,1.2698,1.2698,0,1.3528,1.3449,1.3395,1.3342,1.3301,1.3251,1.3203,1.3157,1.3065,1.3036,1.3031,1.2898,1.2842,1.2761,1.2753,1.2722,1.2706,1.2711,1.2672,1.2669,1.2667,1.2653,1.2648,1.27,1.2699,1.2699,1.2699,0,1.3475,1.342,1.3392,1.3307,1.3263,1.3213,1.3149,1.311,1.3077,1.303,1.2958,1.2891,1.2814,1.2792,1.2758,1.2705,1.2703,1.2686,1.2676,1.2667,1.2653,1.2648,1.2702,1.2702,1.2701,1.2701,0,0,1.3491,1.3377,1.3367,1.3328,1.3241,1.3196,1.3143,1.307,1.3037,1.2975,1.2927,1.2839,1.2823,1.2776,1.2736,1.2703,1.268,1.269,1.2687,1.2689,1.2615,1.2627,1.2623,1.2659,1.2658,1.2657,1.2621,0,1.3465,1.3371,1.332,1.3245,1.3193,1.3144,1.3097,1.3038,1.2992,1.2939,1.2887,1.2826,1.281,1.2781,1.2747,1.269,1.2664,1.2692,1.2611,1.2609,1.2631,1.2615,1.2629,1.2598,1.2615,1.2614,1.2613,0,1.3424,1.3365,1.3286,1.3205,1.3181,1.314,1.3068,1.3019,1.2949,1.2918,1.2867,1.2827,1.2766,1.2762,1.2675,1.2696,1.2659,1.2626,1.2624,1.2613,1.261,1.2603,1.2586,1.2582,1.2605,1.2605,1.2606,0,1.3442,1.3342,1.3282,1.3249,1.3153,1.3126,1.3084,1.3015,1.2974,1.2911,1.2883,1.2813,1.2774,1.2719,1.266,1.2663,1.2578,1.257,1.2548,1.255,1.2532,1.2533,1.2508,1.2511,1.2511,1.2511,1.2511,0,1.3418,1.3371,1.3288,1.3251,1.3196,1.3137,1.3083,1.3037,1.2977,1.2927,1.288,1.2834,1.276,1.2704,1.2658,1.2592,1.2575,1.2546,1.2534,1.255,1.2553,1.2524,1.2524,1.251,1.251,1.251,1.251,0,1.3428,1.3372,1.3302,1.3218,1.3195,1.3159,1.3085,1.3045,1.2998,1.2936,1.2918,1.2842,1.2774,1.271,1.2618,1.2587,1.252,1.2505,1.2544,1.2538,1.2519,1.2522,1.2473,1.2463,1.2475,1.2475,1.2475,0,1.3417,1.338,1.3292,1.3257,1.3217,1.3161,1.312,1.306,1.3018,1.2936,1.2905,1.2834,1.2774,1.2667,1.2601,1.2531,1.2513,1.2501,1.2501,1.2518,1.251,1.2513,1.2508,1.2501,1.2501,1.2502,1.2502,0,1.3402,1.3376,1.332,1.3253,1.3206,1.315,1.3092,1.3065,1.2993,1.2948,1.2879,1.2833,1.274,1.2669,1.2591,1.2544,1.251,1.2502,1.2493,1.2508,1.2532,1.2517,1.2546,1.2503,1.2503,1.2503,1.2503,1.2503,1.34,1.3364,1.3297,1.3236,1.3186,1.3133,1.3092,1.304,1.2982,1.2904,1.2871,1.2801,1.273,1.2622,1.2576,1.2517,1.251,1.2497,1.2494,1.2491,1.2494,1.2543,1.2503,1.2503,1.2503,1.2503,1.2503,0,1.3381,1.3336,1.328,1.3202,1.3153,1.3128,1.3062,1.3022,1.2962,1.29,1.2842,1.2762,1.2693,1.2623,1.2549,1.2516,1.2498,1.2498,1.2499,1.2489,1.2505,1.252,1.2514,1.2514,1.2514,1.2514,1.2514,1.2514,1.3366,1.3304,1.327,1.3182,1.3136,1.3069,1.3034,1.2983,1.2934,1.2847,1.2791,1.2746,1.268,1.2601,1.2535,1.2516,1.249,1.2495,1.2471,1.2488,1.2488,1.2487,1.2501,1.249,1.249,1.2459,1.2458,1.2458]}]]